| time (UTC) | temp F | wind direction | speed MPH | gust MPH | rain 1hr in | rain 24hr in | rain mn in | humidity % | barometer mb |
| 20260906174358 | 67 | 0 | 2.0 | 7.0 | 0.00 | 0.10 | 0.10 | 74 | 1016.3 |
| 20260906173858 | 66 | 68 | 2.0 | 8.0 | 0.00 | 0.10 | 0.10 | 73 | 1016.4 |
| 20260906173356 | 67 | 72 | 3.0 | 8.0 | 0.00 | 0.10 | 0.10 | 72 | 1016.5 |
| 20260906172856 | 67 | 6 | 3.0 | 10.0 | 0.00 | 0.10 | 0.10 | 73 | 1016.4 |
| 20260906172354 | 66 | 61 | 4.0 | 10.0 | 0.00 | 0.10 | 0.10 | 72 | 1016.4 |
| 20260906172115 | 66 | 44 | 4.0 | 10.0 | 0.00 | 0.10 | 0.10 | 72 | 1016.4 |
| 20260906171843 | 66 | 45 | 2.0 | 10.0 | 0.00 | 0.10 | 0.10 | 72 | 1016.4 |
| 20260906170849 | 66 | 66 | 2.0 | 8.0 | 0.00 | 0.10 | 0.10 | 72 | 1016.4 |
| 20260906170616 | 67 | 51 | 4.0 | 11.0 | 0.00 | 0.10 | 0.10 | 70 | 1016.5 |
| 20260906165848 | 67 | 67 | 4.0 | 11.0 | 0.00 | 0.10 | 0.10 | 72 | 1016.5 |
| 20260906165346 | 66 | 75 | 3.0 | 10.0 | 0.00 | 0.10 | 0.10 | 72 | 1016.7 |
| 20260906165108 | 66 | 350 | 4.0 | 10.0 | 0.00 | 0.10 | 0.10 | 72 | 1016.7 |
| 20260906164344 | 66 | 62 | 4.0 | 8.0 | 0.00 | 0.10 | 0.10 | 72 | 1016.6 |
| 20260906164055 | 66 | 85 | 4.0 | 10.0 | 0.00 | 0.10 | 0.10 | 73 | 1016.7 |
| 20260906163937 | 66 | 56 | 3.0 | 10.0 | 0.00 | 0.10 | 0.10 | 72 | 1016.6 |
| 20260906162841 | 66 | 59 | 5.0 | 10.0 | 0.00 | 0.10 | 0.10 | 72 | 1016.7 |
| 20260906162825 | 66 | 79 | 5.0 | 9.0 | 0.00 | 0.10 | 0.10 | 73 | 1016.7 |
| 20260906161842 | 65 | 347 | 4.0 | 9.0 | 0.00 | 0.10 | 0.10 | 73 | 1016.9 |
| 20260906161341 | 66 | 60 | 5.0 | 8.0 | 0.00 | 0.10 | 0.10 | 73 | 1016.9 |
| 20260906160838 | 66 | 359 | 3.0 | 8.0 | 0.00 | 0.10 | 0.10 | 73 | 1017.0 |
| 20260906160337 | 66 | 0 | 3.0 | 7.0 | 0.00 | 0.10 | 0.10 | 72 | 1017.0 |
| 20260906155837 | 66 | 63 | 4.0 | 9.0 | 0.00 | 0.10 | 0.10 | 71 | 1017.1 |
| 20260906155336 | 66 | 71 | 4.0 | 9.0 | 0.00 | 0.10 | 0.10 | 72 | 1017.0 |
| 20260906154836 | 66 | 74 | 5.0 | 9.0 | 0.00 | 0.10 | 0.10 | 72 | 1017.0 |
| 20260906154334 | 65 | 86 | 5.0 | 8.0 | 0.00 | 0.10 | 0.10 | 72 | 1017.0 |
| 20260906154322 | 66 | 58 | 3.0 | 8.0 | 0.00 | 0.10 | 0.10 | 72 | 1017.0 |
| 20260906153330 | 66 | 53 | 4.0 | 8.0 | 0.00 | 0.10 | 0.10 | 73 | 1017.1 |
| 20260906152827 | 65 | 78 | 3.0 | 9.0 | 0.00 | 0.10 | 0.10 | 72 | 1017.1 |
| 20260906152326 | 65 | 42 | 4.0 | 9.0 | 0.00 | 0.10 | 0.10 | 72 | 1017.1 |
| 20260906151825 | 65 | 122 | 3.0 | 9.0 | 0.00 | 0.10 | 0.10 | 72 | 1017.1 |
| 20260906151326 | 65 | 1 | 5.0 | 9.0 | 0.00 | 0.10 | 0.10 | 72 | 1017.1 |
| 20260906150822 | 66 | 69 | 4.0 | 8.0 | 0.00 | 0.10 | 0.10 | 72 | 1017.1 |
| 20260906150323 | 66 | 46 | 4.0 | 12.0 | 0.00 | 0.10 | 0.10 | 73 | 1017.1 |
| 20260906145821 | 65 | 32 | 5.0 | 12.0 | 0.00 | 0.10 | 0.10 | 74 | 1017.1 |
| 20260906145323 | 64 | 0 | 5.0 | 9.0 | 0.00 | 0.10 | 0.10 | 76 | 1017.1 |
| 20260906144819 | 64 | 38 | 4.0 | 10.0 | 0.00 | 0.10 | 0.10 | 78 | 1017.0 |
| 20260906144319 | 64 | 49 | 4.0 | 10.0 | 0.00 | 0.10 | 0.10 | 78 | 1017.1 |
| 20260906143817 | 64 | 9 | 5.0 | 10.0 | 0.00 | 0.10 | 0.10 | 78 | 1017.0 |
| 20260906143318 | 64 | 41 | 3.0 | 10.0 | 0.00 | 0.10 | 0.10 | 77 | 1016.9 |
| 20260906142814 | 64 | 107 | 4.0 | 9.0 | 0.00 | 0.10 | 0.10 | 77 | 1016.9 |
| 20260906142314 | 65 | 15 | 5.0 | 10.0 | 0.00 | 0.10 | 0.10 | 78 | 1016.8 |
| 20260906141811 | 65 | 1 | 4.0 | 10.0 | 0.00 | 0.10 | 0.10 | 77 | 1016.8 |
| 20260906141312 | 65 | 63 | 5.0 | 9.0 | 0.00 | 0.10 | 0.10 | 77 | 1016.7 |
| 20260906140808 | 65 | 66 | 4.0 | 12.0 | 0.00 | 0.10 | 0.10 | 76 | 1016.7 |
| 20260906140309 | 65 | 25 | 6.0 | 12.0 | 0.00 | 0.10 | 0.10 | 76 | 1016.7 |
| 20260906135806 | 64 | 31 | 3.0 | 10.0 | 0.00 | 0.10 | 0.10 | 79 | 1016.7 |
| 20260906135758 | 64 | 77 | 4.0 | 9.0 | 0.00 | 0.10 | 0.10 | 78 | 1016.7 |
| 20260906134806 | 64 | 46 | 4.0 | 8.0 | 0.00 | 0.10 | 0.10 | 77 | 1016.7 |
| 20260906134306 | 65 | 14 | 4.0 | 10.0 | 0.00 | 0.10 | 0.10 | 76 | 1016.7 |
| 20260906133803 | 65 | 25 | 6.0 | 10.0 | 0.00 | 0.10 | 0.10 | 75 | 1016.7 |
| 20260906133304 | 65 | 346 | 6.0 | 9.0 | 0.00 | 0.10 | 0.10 | 75 | 1016.7 |
| 20260906132802 | 65 | 51 | 4.0 | 11.0 | 0.00 | 0.10 | 0.10 | 76 | 1016.7 |
| 20260906132521 | 65 | 54 | 6.0 | 12.0 | 0.00 | 0.10 | 0.10 | 76 | 1016.7 |
| 20260906131801 | 65 | 71 | 6.0 | 12.0 | 0.00 | 0.10 | 0.10 | 75 | 1016.7 |
| 20260906131301 | 65 | 34 | 6.0 | 11.0 | 0.00 | 0.10 | 0.10 | 75 | 1016.6 |
| 20260906131023 | 65 | 71 | 6.0 | 12.0 | 0.00 | 0.10 | 0.10 | 74 | 1016.5 |
| 20260906130300 | 65 | 9 | 4.0 | 15.0 | 0.00 | 0.10 | 0.10 | 75 | 1016.5 |
| 20260906125757 | 65 | 53 | 8.0 | 15.0 | 0.00 | 0.10 | 0.10 | 76 | 1016.4 |
| 20260906125258 | 65 | 50 | 4.0 | 13.0 | 0.00 | 0.10 | 0.10 | 77 | 1016.3 |
| 20260906125022 | 65 | 72 | 7.0 | 13.0 | 0.00 | 0.10 | 0.10 | 78 | 1016.3 |
| 20260906124256 | 65 | 27 | 6.0 | 10.0 | 0.00 | 0.10 | 0.10 | 78 | 1016.2 |
| 20260906123754 | 65 | 41 | 6.0 | 11.0 | 0.00 | 0.10 | 0.10 | 80 | 1016.2 |
| 20260906123255 | 64 | 0 | 7.0 | 11.0 | 0.00 | 0.10 | 0.10 | 80 | 1016.3 |
| 20260906122752 | 64 | 72 | 4.0 | 10.0 | 0.00 | 0.10 | 0.10 | 80 | 1016.2 |
| 20260906122253 | 64 | 41 | 6.0 | 10.0 | 0.00 | 0.10 | 0.10 | 80 | 1016.1 |
| 20260906121751 | 64 | 72 | 5.0 | 9.0 | 0.00 | 0.10 | 0.10 | 79 | 1016.2 |
| 20260906121252 | 64 | 32 | 5.0 | 8.0 | 0.00 | 0.10 | 0.10 | 79 | 1016.1 |
| 20260906120750 | 64 | 51 | 5.0 | 8.0 | 0.00 | 0.10 | 0.10 | 79 | 1016.0 |
| 20260906120251 | 63 | 344 | 4.0 | 9.0 | 0.00 | 0.10 | 0.10 | 81 | 1016.0 |
| 20260906120009 | 63 | 5 | 4.0 | 9.0 | 0.00 | 0.10 | 0.10 | 82 | 1015.9 |
| 20260906115251 | 63 | 31 | 3.0 | 8.0 | 0.00 | 0.10 | 0.10 | 82 | 1015.9 |
| 20260906114748 | 63 | 63 | 4.0 | 8.0 | 0.00 | 0.10 | 0.10 | 82 | 1015.9 |
| 20260906114249 | 63 | 16 | 4.0 | 9.0 | 0.00 | 0.10 | 0.10 | 83 | 1015.9 |
| 20260906113747 | 63 | 340 | 4.0 | 9.0 | 0.00 | 0.10 | 0.10 | 83 | 1015.8 |
| 20260906113249 | 63 | 76 | 3.0 | 13.0 | 0.00 | 0.10 | 0.10 | 84 | 1015.8 |
| 20260906112745 | 63 | 36 | 4.0 | 13.0 | 0.01 | 0.10 | 0.10 | 85 | 1015.7 |
| 20260906112246 | 63 | 7 | 4.0 | 9.0 | 0.01 | 0.10 | 0.10 | 85 | 1015.6 |
| 20260906111743 | 63 | 28 | 4.0 | 9.0 | 0.01 | 0.10 | 0.10 | 85 | 1015.4 |
| 20260906111515 | 62 | 350 | 3.0 | 9.0 | 0.01 | 0.10 | 0.10 | 84 | 1015.5 |
| 20260906110743 | 62 | 359 | 3.0 | 9.0 | 0.02 | 0.10 | 0.10 | 84 | 1015.4 |
| 20260906110242 | 62 | 44 | 4.0 | 9.0 | 0.02 | 0.10 | 0.10 | 84 | 1015.2 |
| 20260906105740 | 62 | 56 | 4.0 | 8.0 | 0.02 | 0.10 | 0.10 | 86 | 1015.2 |
| 20260906105241 | 62 | 0 | 4.0 | 8.0 | 0.02 | 0.10 | 0.10 | 86 | 1015.1 |
| 20260906104738 | 61 | 34 | 2.0 | 7.0 | 0.02 | 0.10 | 0.10 | 86 | 1015.1 |
| 20260906104241 | 61 | 68 | 4.0 | 7.0 | 0.02 | 0.10 | 0.10 | 86 | 1015.2 |
| 20260906103738 | 61 | 37 | 3.0 | 7.0 | 0.02 | 0.10 | 0.10 | 86 | 1015.3 |
| 20260906103238 | 61 | 60 | 2.0 | 10.0 | 0.02 | 0.10 | 0.10 | 85 | 1015.2 |
| 20260906102737 | 62 | 64 | 3.0 | 10.0 | 0.01 | 0.09 | 0.09 | 85 | 1015.1 |
| 20260906102235 | 62 | 18 | 2.0 | 8.0 | 0.01 | 0.09 | 0.09 | 85 | 1015.0 |
| 20260906101732 | 62 | 35 | 4.0 | 10.0 | 0.01 | 0.09 | 0.09 | 84 | 1015.0 |
| 20260906101233 | 62 | 27 | 5.0 | 12.0 | 0.01 | 0.09 | 0.09 | 83 | 1014.9 |
| 20260906100958 | 62 | 34 | 3.0 | 10.0 | 0.00 | 0.08 | 0.08 | 83 | 1015.0 |
| 20260906100228 | 62 | 46 | 5.0 | 9.0 | 0.02 | 0.08 | 0.08 | 83 | 1014.9 |
| 20260906095727 | 62 | 306 | 2.0 | 7.0 | 0.02 | 0.08 | 0.08 | 84 | 1014.6 |
| 20260906095227 | 61 | 266 | 1.0 | 6.0 | 0.03 | 0.08 | 0.08 | 84 | 1014.3 |
| 20260906094725 | 62 | 262 | 2.0 | 6.0 | 0.03 | 0.08 | 0.08 | 84 | 1014.4 |
| 20260906094226 | 62 | 58 | 2.0 | 7.0 | 0.04 | 0.08 | 0.08 | 84 | 1014.5 |
| 20260906093723 | 62 | 333 | 3.0 | 10.0 | 0.04 | 0.08 | 0.08 | 85 | 1014.8 |
| 20260906093223 | 62 | 30 | 6.0 | 12.0 | 0.05 | 0.08 | 0.08 | 84 | 1014.8 |
| 20260906092721 | 61 | 31 | 4.0 | 12.0 | 0.06 | 0.08 | 0.08 | 85 | 1014.8 |
| 20260906092221 | 61 | 345 | 4.0 | 11.0 | 0.07 | 0.08 | 0.08 | 85 | 1014.9 |
| 20260906091720 | 61 | 9 | 5.0 | 11.0 | 0.08 | 0.08 | 0.08 | 86 | 1014.8 |
| 20260906091221 | 61 | 51 | 4.0 | 9.0 | 0.08 | 0.08 | 0.08 | 86 | 1014.7 |
| 20260906090718 | 61 | 46 | 3.0 | 8.0 | 0.08 | 0.08 | 0.08 | 85 | 1014.6 |
| 20260906090218 | 62 | 1 | 3.0 | 8.0 | 0.06 | 0.06 | 0.07 | 86 | 1014.6 |
| 20260906085716 | 62 | 30 | 3.0 | 9.0 | 0.06 | 0.06 | 0.06 | 85 | 1014.4 |
| 20260906085216 | 62 | 58 | 4.0 | 9.0 | 0.05 | 0.05 | 0.05 | 85 | 1014.4 |
| 20260906084712 | 62 | 333 | 4.0 | 8.0 | 0.05 | 0.05 | 0.05 | 85 | 1014.4 |
| 20260906084212 | 62 | 68 | 2.0 | 9.0 | 0.04 | 0.04 | 0.04 | 85 | 1014.2 |
| 20260906083711 | 62 | 23 | 4.0 | 11.0 | 0.04 | 0.04 | 0.04 | 84 | 1014.2 |
| 20260906083437 | 62 | 53 | 5.0 | 11.0 | 0.03 | 0.03 | 0.03 | 84 | 1014.2 |
| 20260906082709 | 63 | 0 | 4.0 | 8.0 | 0.02 | 0.02 | 0.02 | 83 | 1014.2 |
| 20260906082210 | 63 | 73 | 1.0 | 8.0 | 0.01 | 0.01 | 0.01 | 83 | 1014.2 |
| 20260906081706 | 63 | 14 | 3.0 | 9.0 | 0.00 | 0.00 | 0.00 | 82 | 1014.2 |
| 20260906081208 | 63 | 41 | 3.0 | 9.0 | 0.00 | 0.00 | 0.00 | 81 | 1014.2 |
| 20260906080706 | 64 | 39 | 3.0 | 8.0 | 0.00 | 0.00 | 0.00 | 80 | 1014.0 |
| 20260906080203 | 64 | 267 | 3.0 | 7.0 | 0.00 | 0.00 | 0.00 | 80 | 1013.9 |
| 20260906075924 | 64 | 60 | 3.0 | 8.0 | 0.00 | 0.00 | 0.00 | 80 | 1013.9 |
| 20260906075202 | 64 | 31 | 3.0 | 8.0 | 0.00 | 0.00 | 0.00 | 80 | 1013.8 |
| 20260906074701 | 64 | 13 | 3.0 | 8.0 | 0.00 | 0.00 | 0.00 | 80 | 1013.8 |
| 20260906074202 | 64 | 66 | 3.0 | 8.0 | 0.00 | 0.00 | 0.00 | 80 | 1013.8 |
| 20260906073658 | 64 | 1 | 3.0 | 8.0 | 0.00 | 0.00 | 0.00 | 81 | 1013.9 |
| 20260906073158 | 64 | 334 | 4.0 | 10.0 | 0.00 | 0.00 | 0.00 | 81 | 1013.8 |
| 20260906072657 | 64 | 53 | 3.0 | 10.0 | 0.00 | 0.00 | 0.00 | 81 | 1013.8 |
| 20260906072157 | 65 | 59 | 4.0 | 9.0 | 0.00 | 0.00 | 0.00 | 81 | 1013.8 |
| 20260906071658 | 65 | 349 | 3.0 | 9.0 | 0.00 | 0.00 | 0.00 | 80 | 1013.9 |
| 20260906071157 | 65 | 348 | 3.0 | 9.0 | 0.00 | 0.00 | 0.00 | 80 | 1013.8 |
| 20260906070858 | 65 | 4 | 3.0 | 8.0 | 0.00 | 0.00 | 0.00 | 79 | 1013.8 |
| 20260906070750 | 65 | 24 | 4.0 | 8.0 | 0.00 | 0.00 | 0.00 | 80 | 1013.7 |
| 20260906065633 | 65 | 332 | 4.0 | 8.0 | 0.00 | 0.00 | 0.00 | 79 | 1013.7 |
| 20260906065134 | 65 | 61 | 4.0 | 8.0 | 0.00 | 0.00 | 0.00 | 79 | 1013.8 |
| 20260906064633 | 65 | 13 | 4.0 | 8.0 | 0.00 | 0.00 | 0.00 | 78 | 1013.8 |
| 20260906064131 | 65 | 42 | 2.0 | 8.0 | 0.00 | 0.00 | 0.00 | 78 | 1013.7 |
| 20260906063630 | 65 | 22 | 2.0 | 8.0 | 0.00 | 0.00 | 0.00 | 77 | 1013.7 |
| 20260906063129 | 65 | 67 | 4.0 | 8.0 | 0.00 | 0.00 | 0.00 | 77 | 1013.8 |
| 20260906062630 | 65 | 0 | 3.0 | 9.0 | 0.00 | 0.00 | 0.00 | 78 | 1013.8 |
| 20260906062128 | 64 | 359 | 4.0 | 9.0 | 0.00 | 0.00 | 0.00 | 80 | 1013.7 |
| 20260906061627 | 64 | 51 | 5.0 | 8.0 | 0.00 | 0.00 | 0.00 | 83 | 1013.7 |
| 20260906061126 | 64 | 15 | 3.0 | 8.0 | 0.00 | 0.00 | 0.00 | 85 | 1013.7 |
| 20260906060625 | 64 | 65 | 3.0 | 7.0 | 0.00 | 0.00 | 0.00 | 86 | 1013.8 |
| 20260906060602 | 64 | 57 | 1.0 | 4.0 | 0.00 | 0.00 | 0.00 | 86 | 1013.7 |
| 20260906055615 | 64 | 56 | 2.0 | 5.0 | 0.00 | 0.00 | 0.00 | 86 | 1013.7 |
| 20260906055118 | 64 | 53 | 1.0 | 5.0 | 0.00 | 0.00 | 0.00 | 86 | 1013.7 |
| 20260906054838 | 64 | 44 | 1.0 | 6.0 | 0.00 | 0.00 | 0.00 | 86 | 1013.8 |
| 20260906054113 | 64 | 11 | 3.0 | 7.0 | 0.00 | 0.00 | 0.00 | 86 | 1013.8 |
| 20260906053611 | 64 | 1 | 2.0 | 7.0 | 0.00 | 0.00 | 0.00 | 86 | 1013.8 |
| 20260906053111 | 64 | 32 | 2.0 | 6.0 | 0.00 | 0.00 | 0.00 | 86 | 1013.9 |
| 20260906052610 | 64 | 40 | 3.0 | 6.0 | 0.00 | 0.00 | 0.00 | 86 | 1014.0 |
| 20260906052113 | 64 | 31 | 4.0 | 6.0 | 0.00 | 0.00 | 0.00 | 86 | 1014.0 |
| 20260906051607 | 64 | 19 | 2.0 | 5.0 | 0.00 | 0.00 | 0.00 | 86 | 1014.0 |
| 20260906051109 | 64 | 324 | 3.0 | 6.0 | 0.00 | 0.00 | 0.00 | 86 | 1014.0 |
| 20260906050606 | 64 | 23 | 2.0 | 6.0 | 0.00 | 0.00 | 0.00 | 86 | 1014.1 |
| 20260906050107 | 64 | 30 | 2.0 | 5.0 | 0.00 | 0.00 | 0.00 | 86 | 1014.1 |
| 20260906045606 | 64 | 1 | 1.0 | 5.0 | 0.00 | 0.00 | 0.00 | 86 | 1014.1 |
| 20260906045105 | 64 | 44 | 2.0 | 5.0 | 0.00 | 0.00 | 0.00 | 86 | 1014.0 |
| 20260906044604 | 64 | 36 | 2.0 | 5.0 | 0.00 | 0.00 | 0.00 | 86 | 1014.0 |
| 20260906044103 | 64 | 67 | 2.0 | 6.0 | 0.00 | 0.00 | 0.00 | 86 | 1014.1 |
| 20260906043600 | 64 | 1 | 2.0 | 6.0 | 0.00 | 0.00 | 0.00 | 86 | 1014.0 |
| 20260906043104 | 64 | 33 | 2.0 | 3.0 | 0.00 | 0.00 | 0.00 | 86 | 1014.0 |
| 20260906042554 | 64 | 30 | 1.0 | 3.0 | 0.00 | 0.00 | 0.00 | 86 | 1013.9 |
| 20260906042046 | 64 | 30 | 1.0 | 3.0 | 0.00 | 0.00 | 0.00 | 86 | 1014.0 |
| 20260906041546 | 64 | 30 | 1.0 | 2.0 | 0.00 | 0.00 | 0.00 | 86 | 1014.0 |
| 20260906041035 | 64 | 30 | 0.0 | 3.0 | 0.00 | 0.00 | 0.00 | 85 | 1013.9 |
| 20260906040533 | 64 | 30 | 0.0 | 3.0 | 0.00 | 0.00 | 0.00 | 85 | 1013.9 |
| 20260906040032 | 64 | 30 | 1.0 | 2.0 | 0.00 | 0.00 | 0.00 | 85 | 1013.9 |
| 20260906035530 | 64 | 30 | 1.0 | 2.0 | 0.00 | 0.00 | 0.00 | 85 | 1013.9 |
| 20260906035030 | 64 | 30 | 0.0 | 2.0 | 0.00 | 0.00 | 0.00 | 84 | 1013.8 |
| 20260906034759 | 65 | 30 | 0.0 | 2.0 | 0.00 | 0.00 | 0.00 | 84 | 1013.8 |
| 20260906034025 | 65 | 30 | 1.0 | 2.0 | 0.00 | 0.00 | 0.00 | 84 | 1013.8 |
| 20260906033525 | 65 | 30 | 1.0 | 2.0 | 0.00 | 0.00 | 0.00 | 83 | 1013.7 |
| 20260906033023 | 65 | 30 | 1.0 | 2.0 | 0.00 | 0.00 | 0.00 | 83 | 1013.7 |
| 20260906032508 | 65 | 30 | 1.0 | 2.0 | 0.00 | 0.00 | 0.00 | 83 | 1013.7 |
| 20260906032007 | 65 | 30 | 0.0 | 4.0 | 0.00 | 0.00 | 0.00 | 82 | 1013.8 |
| 20260906031506 | 65 | 30 | 2.0 | 5.0 | 0.00 | 0.00 | 0.00 | 81 | 1013.9 |
| 20260906031003 | 65 | 351 | 1.0 | 5.0 | 0.00 | 0.00 | 0.00 | 81 | 1013.8 |
| 20260906030731 | 66 | 40 | 0.0 | 4.0 | 0.00 | 0.00 | 0.00 | 81 | 1013.8 |
| 20260906030225 | 66 | 41 | 1.0 | 4.0 | 0.00 | 0.00 | 0.00 | 80 | 1013.8 |
| 20260906025501 | 66 | 58 | 1.0 | 4.0 | 0.00 | 0.00 | 0.00 | 80 | 1013.9 |
| 20260906024959 | 66 | 51 | 2.0 | 5.0 | 0.00 | 0.00 | 0.00 | 79 | 1013.9 |
| 20260906024500 | 66 | 30 | 2.0 | 6.0 | 0.00 | 0.00 | 0.00 | 79 | 1013.8 |
| 20260906023958 | 66 | 65 | 2.0 | 6.0 | 0.00 | 0.00 | 0.00 | 79 | 1013.7 |
| 20260906023947 | 66 | 44 | 3.0 | 6.0 | 0.00 | 0.00 | 0.00 | 79 | 1013.7 |
| 20260906022956 | 66 | 33 | 3.0 | 6.0 | 0.00 | 0.00 | 0.00 | 78 | 1013.7 |
| 20260906022458 | 66 | 19 | 2.0 | 6.0 | 0.00 | 0.00 | 0.00 | 78 | 1013.8 |
| 20260906021957 | 66 | 33 | 3.0 | 6.0 | 0.00 | 0.00 | 0.00 | 78 | 1013.7 |
| 20260906021455 | 66 | 26 | 2.0 | 6.0 | 0.00 | 0.00 | 0.00 | 79 | 1013.8 |
| 20260906020955 | 66 | 33 | 1.0 | 6.0 | 0.00 | 0.00 | 0.00 | 79 | 1013.7 |
| 20260906020453 | 66 | 359 | 2.0 | 6.0 | 0.00 | 0.00 | 0.00 | 79 | 1013.7 |
| 20260906015954 | 66 | 39 | 2.0 | 6.0 | 0.00 | 0.00 | 0.00 | 79 | 1013.8 |
| 20260906015934 | 66 | 31 | 1.0 | 4.0 | 0.00 | 0.00 | 0.00 | 79 | 1013.8 |
| 20260906014950 | 66 | 23 | 2.0 | 4.0 | 0.00 | 0.00 | 0.00 | 79 | 1013.8 |
| 20260906014451 | 66 | 19 | 2.0 | 4.0 | 0.00 | 0.00 | 0.00 | 79 | 1013.9 |
| 20260906013949 | 66 | 0 | 2.0 | 5.0 | 0.00 | 0.00 | 0.00 | 79 | 1013.9 |
| 20260906013450 | 66 | 39 | 1.0 | 6.0 | 0.00 | 0.00 | 0.00 | 78 | 1013.9 |
| 20260906013210 | 66 | 31 | 2.0 | 6.0 | 0.00 | 0.00 | 0.00 | 79 | 1013.9 |
| 20260906012936 | 66 | 62 | 2.0 | 5.0 | 0.00 | 0.00 | 0.00 | 78 | 1013.9 |
| 20260906011947 | 66 | 41 | 2.0 | 5.0 | 0.00 | 0.00 | 0.00 | 78 | 1013.9 |
| 20260906011446 | 66 | 63 | 2.0 | 5.0 | 0.00 | 0.00 | 0.00 | 78 | 1013.8 |
| 20260906011211 | 66 | 57 | 3.0 | 5.0 | 0.00 | 0.00 | 0.00 | 78 | 1013.8 |
| 20260906010658 | 66 | 359 | 2.0 | 5.0 | 0.00 | 0.00 | 0.00 | 79 | 1013.8 |
| 20260906010157 | 66 | 32 | 3.0 | 5.0 | 0.00 | 0.00 | 0.00 | 79 | 1013.9 |
| 20260906005438 | 66 | 32 | 1.0 | 6.0 | 0.00 | 0.00 | 0.00 | 79 | 1013.8 |
| 20260906004939 | 66 | 58 | 2.0 | 6.0 | 0.00 | 0.00 | 0.00 | 79 | 1013.8 |
| 20260906004436 | 66 | 61 | 1.0 | 5.0 | 0.00 | 0.00 | 0.00 | 80 | 1013.7 |
| 20260906004156 | 66 | 16 | 1.0 | 5.0 | 0.00 | 0.00 | 0.00 | 80 | 1013.6 |
| 20260906003426 | 66 | 51 | 1.0 | 3.0 | 0.00 | 0.00 | 0.00 | 80 | 1013.5 |
| 20260906002926 | 66 | 53 | 2.0 | 4.0 | 0.00 | 0.00 | 0.00 | 80 | 1013.4 |
| 20260906002427 | 66 | 54 | 2.0 | 4.0 | 0.00 | 0.00 | 0.00 | 80 | 1013.4 |
| 20260906001925 | 66 | 47 | 2.0 | 4.0 | 0.00 | 0.00 | 0.00 | 80 | 1013.4 |
| 20260906001644 | 66 | 50 | 1.0 | 6.0 | 0.00 | 0.00 | 0.00 | 80 | 1013.3 |
| 20260906001145 | 66 | 50 | 1.0 | 6.0 | 0.00 | 0.00 | 0.00 | 79 | 1013.4 |
| 20260906000425 | 66 | 0 | 1.0 | 5.0 | 0.00 | 0.00 | 0.00 | 79 | 1013.4 |
| 20260905235924 | 66 | 49 | 1.0 | 3.0 | 0.00 | 0.00 | 0.00 | 80 | 1013.3 |
| 20260905235423 | 66 | 46 | 0.0 | 4.0 | 0.00 | 0.00 | 0.00 | 80 | 1013.3 |
| 20260905234921 | 66 | 46 | 2.0 | 4.0 | 0.00 | 0.00 | 0.00 | 81 | 1013.3 |
| 20260905234419 | 66 | 50 | 1.0 | 2.0 | 0.00 | 0.00 | 0.00 | 81 | 1013.4 |
| 20260905234145 | 66 | 50 | 1.0 | 3.0 | 0.00 | 0.00 | 0.00 | 81 | 1013.3 |
| 20260905233418 | 66 | 50 | 0.0 | 2.0 | 0.00 | 0.00 | 0.00 | 81 | 1013.3 |
| 20260905232911 | 66 | 50 | 0.0 | 3.0 | 0.00 | 0.00 | 0.00 | 81 | 1013.3 |
| 20260905232412 | 66 | 50 | 1.0 | 6.0 | 0.00 | 0.00 | 0.00 | 81 | 1013.2 |
| 20260905232142 | 66 | 50 | 0.0 | 6.0 | 0.00 | 0.00 | 0.00 | 81 | 1013.3 |
| 20260905231409 | 66 | 39 | 1.0 | 3.0 | 0.00 | 0.00 | 0.00 | 81 | 1013.2 |
| 20260905230910 | 66 | 82 | 0.0 | 1.0 | 0.00 | 0.00 | 0.00 | 81 | 1013.1 |
| 20260905230409 | 66 | 82 | 0.0 | 1.0 | 0.00 | 0.00 | 0.00 | 80 | 1013.0 |
| 20260905225907 | 66 | 82 | 0.0 | 1.0 | 0.00 | 0.00 | 0.00 | 80 | 1013.0 |
| 20260905225409 | 66 | 82 | 0.0 | 2.0 | 0.00 | 0.00 | 0.00 | 80 | 1013.2 |
| 20260905224901 | 66 | 82 | 0.0 | 2.0 | 0.00 | 0.00 | 0.00 | 80 | 1013.2 |
| 20260905224615 | 66 | 82 | 0.0 | 3.0 | 0.00 | 0.00 | 0.00 | 80 | 1013.2 |
| 20260905224112 | 66 | 82 | 0.0 | 3.0 | 0.00 | 0.00 | 0.00 | 80 | 1013.2 |
| 20260905223701 | 66 | 18 | 1.0 | 4.0 | 0.00 | 0.00 | 0.00 | 80 | 1013.2 |
| 20260905223559 | 66 | 18 | 1.0 | 4.0 | 0.00 | 0.00 | 0.00 | 80 | 1013.2 |
| 20260905222351 | 67 | 32 | 1.0 | 4.0 | 0.00 | 0.00 | 0.00 | 80 | 1013.2 |
| 20260905221849 | 67 | 33 | 1.0 | 4.0 | 0.00 | 0.00 | 0.00 | 80 | 1013.2 |
| 20260905221839 | 67 | 340 | 0.0 | 3.0 | 0.00 | 0.00 | 0.00 | 80 | 1013.1 |
| 20260905220849 | 67 | 335 | 0.0 | 3.0 | 0.00 | 0.00 | 0.00 | 80 | 1013.0 |
| 20260905220335 | 67 | 186 | 0.0 | 4.0 | 0.00 | 0.00 | 0.00 | 80 | 1013.0 |
| 20260905215835 | 67 | 49 | 1.0 | 4.0 | 0.00 | 0.00 | 0.00 | 80 | 1012.9 |
| 20260905215604 | 67 | 5 | 2.0 | 6.0 | 0.00 | 0.00 | 0.00 | 80 | 1012.8 |
| 20260905214834 | 67 | 20 | 2.0 | 6.0 | 0.00 | 0.00 | 0.00 | 80 | 1012.8 |
| 20260905214325 | 67 | 73 | 1.0 | 5.0 | 0.00 | 0.00 | 0.00 | 80 | 1012.7 |
| 20260905213825 | 67 | 15 | 1.0 | 6.0 | 0.00 | 0.00 | 0.00 | 80 | 1012.8 |
| 20260905213322 | 67 | 21 | 1.0 | 6.0 | 0.00 | 0.00 | 0.00 | 81 | 1012.8 |
| 20260905212823 | 67 | 354 | 2.0 | 6.0 | 0.00 | 0.00 | 0.00 | 81 | 1012.7 |
| 20260905212319 | 67 | 0 | 2.0 | 6.0 | 0.00 | 0.00 | 0.00 | 81 | 1012.6 |
| 20260905211818 | 67 | 36 | 2.0 | 6.0 | 0.00 | 0.00 | 0.00 | 81 | 1012.5 |
| 20260905211543 | 67 | 335 | 2.0 | 4.0 | 0.00 | 0.00 | 0.00 | 81 | 1012.5 |
| 20260905210820 | 67 | 343 | 1.0 | 7.0 | 0.00 | 0.00 | 0.00 | 82 | 1012.4 |
| 20260905210319 | 67 | 33 | 3.0 | 7.0 | 0.00 | 0.00 | 0.00 | 81 | 1012.5 |
| 20260905205818 | 67 | 0 | 2.0 | 9.0 | 0.00 | 0.00 | 0.00 | 81 | 1012.5 |
| 20260905205316 | 67 | 41 | 4.0 | 9.0 | 0.00 | 0.00 | 0.00 | 81 | 1012.5 |
| 20260905204817 | 67 | 48 | 2.0 | 5.0 | 0.00 | 0.00 | 0.00 | 81 | 1012.5 |
| 20260905204314 | 67 | 345 | 2.0 | 6.0 | 0.00 | 0.00 | 0.00 | 81 | 1012.4 |
| 20260905203814 | 67 | 54 | 3.0 | 6.0 | 0.00 | 0.00 | 0.00 | 81 | 1012.4 |
| 20260905203313 | 67 | 93 | 2.0 | 6.0 | 0.00 | 0.00 | 0.00 | 81 | 1012.4 |
| 20260905202811 | 67 | 201 | 2.0 | 5.0 | 0.00 | 0.00 | 0.00 | 81 | 1012.4 |
| 20260905202529 | 67 | 37 | 2.0 | 6.0 | 0.00 | 0.00 | 0.00 | 81 | 1012.4 |
| 20260905201810 | 68 | 46 | 2.0 | 6.0 | 0.00 | 0.00 | 0.00 | 81 | 1012.3 |
| 20260905201310 | 68 | 62 | 2.0 | 6.0 | 0.00 | 0.00 | 0.00 | 81 | 1012.2 |
| 20260905201037 | 67 | 10 | 1.0 | 5.0 | 0.00 | 0.00 | 0.00 | 80 | 1012.2 |
| 20260905200310 | 67 | 276 | 2.0 | 9.0 | 0.00 | 0.00 | 0.00 | 80 | 1012.0 |
| 20260905195807 | 67 | 30 | 1.0 | 10.0 | 0.00 | 0.00 | 0.00 | 81 | 1012.1 |
| 20260905195309 | 67 | 51 | 3.0 | 10.0 | 0.00 | 0.00 | 0.00 | 81 | 1012.1 |
| 20260905194800 | 67 | 19 | 4.0 | 9.0 | 0.00 | 0.00 | 0.00 | 81 | 1012.0 |
| 20260905194524 | 68 | 27 | 2.0 | 5.0 | 0.00 | 0.00 | 0.00 | 82 | 1012.0 |
| 20260905193758 | 68 | 347 | 2.0 | 5.0 | 0.00 | 0.00 | 0.00 | 82 | 1012.1 |
| 20260905193256 | 68 | 34 | 2.0 | 5.0 | 0.00 | 0.00 | 0.00 | 82 | 1012.2 |
| 20260905192758 | 68 | 16 | 2.0 | 5.0 | 0.00 | 0.00 | 0.00 | 82 | 1012.2 |
| 20260905192256 | 68 | 134 | 1.0 | 4.0 | 0.00 | 0.00 | 0.00 | 82 | 1012.2 |
| 20260905191755 | 68 | 275 | 2.0 | 8.0 | 0.00 | 0.00 | 0.00 | 82 | 1012.3 |
| 20260905191257 | 68 | 41 | 4.0 | 8.0 | 0.00 | 0.00 | 0.00 | 81 | 1012.2 |
| 20260905190755 | 68 | 359 | 3.0 | 6.0 | 0.00 | 0.00 | 0.00 | 82 | 1012.2 |
| 20260905190253 | 68 | 181 | 2.0 | 5.0 | 0.00 | 0.00 | 0.00 | 82 | 1012.3 |
| 20260905185751 | 67 | 349 | 1.0 | 6.0 | 0.00 | 0.00 | 0.00 | 82 | 1012.3 |
| 20260905185513 | 67 | 1 | 1.0 | 6.0 | 0.00 | 0.00 | 0.00 | 83 | 1012.2 |
| 20260905184750 | 67 | 0 | 2.0 | 8.0 | 0.00 | 0.00 | 0.00 | 83 | 1012.2 |
| 20260905184507 | 67 | 58 | 2.0 | 8.0 | 0.00 | 0.00 | 0.00 | 83 | 1012.1 |
| 20260905183747 | 67 | 335 | 4.0 | 9.0 | 0.00 | 0.00 | 0.00 | 83 | 1012.2 |
| 20260905183248 | 67 | 44 | 4.0 | 9.0 | 0.00 | 0.00 | 0.00 | 84 | 1012.2 |
| 20260905182748 | 67 | 53 | 3.0 | 7.0 | 0.00 | 0.00 | 0.00 | 85 | 1012.2 |
| 20260905182507 | 67 | 44 | 1.0 | 6.0 | 0.00 | 0.00 | 0.00 | 85 | 1012.3 |
| 20260905181745 | 67 | 305 | 2.0 | 5.0 | 0.00 | 0.00 | 0.00 | 85 | 1012.4 |
| 20260905181245 | 67 | 242 | 2.0 | 5.0 | 0.00 | 0.00 | 0.00 | 85 | 1012.4 |
| 20260905180744 | 67 | 214 | 2.0 | 7.0 | 0.00 | 0.00 | 0.00 | 85 | 1012.3 |
| 20260905180243 | 67 | 51 | 2.0 | 13.0 | 0.00 | 0.00 | 0.00 | 85 | 1012.3 |
| 20260905175742 | 67 | 47 | 5.0 | 13.0 | 0.00 | 0.00 | 0.00 | 84 | 1012.2 |
| 20260905175240 | 67 | 47 | 5.0 | 10.0 | 0.00 | 0.00 | 0.00 | 85 | 1012.2 |
| 20260905175230 | 68 | 307 | 3.0 | 9.0 | 0.00 | 0.00 | 0.00 | 85 | 1012.1 |